User: anonymous   Login
Location: Fort Wayne
(41.1310°N, 85.1290°W)
Time: 09:41:47
(UTC-04:00)
Language:

SR - Orbit

View from above orbital plane
View from above orbital plane
View from above satellite
View from above satellite

Ground track
Ground track

The orbit data is extracted from the following two-line orbital elements,

1 00046U 60007B   16236.47441973  .00000047  00000-0  32824-4 0  9994
2 00046  66.6894 212.1760 0203240  90.1643 272.2754 14.48915115937124
Epoch (UTC): 23 August 2016 11:23:09
Eccentricity: 0.0203240
inclination: 66.6894°
perigee height: 585 km
apogee height: 873 km
right ascension of ascending node: 212.1760°
argument of perigee: 90.1643°
revolutions per day: 14.48915115
mean anomaly at epoch: 272.2754°
orbit number at epoch: 93712

The dashed part of the orbit path shows where the satellite is in the earth's shadow,  

DLR